Tracking 25963 objects as of 12-Aug-2022
HD Live streaming from Space Station
objects crossing your sky now

RESURS O1 DEB

Track RESURS O1 DEB now!
10-day predictions


NORAD ID: 46874
Int'l Code: 1994-074BE
Perigee: 611.6 km
Apogee: 616.5 km
Inclination: 97.9 °
Period: 96.8 minutes
Semi major axis: 6985 km
RCS: Unknown
Launch date: November 4, 1994
Source: Commonwealth of Independent States (former USSR) (CIS)
Launch site: TYURATAM MISSILE AND SPACE COMPLEX (TTMTR)

Note: This is SATELLITE DEBRIS
aabbcc
Your satellite tracking list
Your tracking list is empty




NASA's NSSDC Master Catalog

Two Line Element Set (TLE):
1 46874U 94074BE  22222.36574679  .00014136  00000-0  15767-2 0  9993
2 46874  97.8960 272.5830 0003545 108.3150 251.8451 14.87133755 95691
Source of the keplerian elements: AFSPC